Weather History for Pagosa Springs, CO

Change the Weather History Date:

Tuesday, December 24, 2013

  Actual Average (KDRO) Record (KDRO)
Temperature  
Mean Temperature 22 °F 24 °F  
Max Temperature 36 °F 38 °F 51 °F (1980)
Min Temperature 8 °F 11 °F -21 °F (1990)
Degree Days  
Heating Degree Days 43 41  
Month to date heating degree days 914  
Since 1 July heating degree days 2587  
Cooling Degree Days 0 0  
Month to date cooling degree days 0  
Year to date cooling degree days 243  
Moisture  
Dew Point 13 °F    
Average Humidity 72    
Maximum Humidity 95    
Minimum Humidity 45    
Precipitation  
Precipitation 0.00 in 0.04 in 0.45 in (1988)
Month to date precipitation 0.80  
Year to date precipitation 15.70  
Sea Level Pressure  
Sea Level Pressure 30.29 in    
Wind  
Wind Speed 1 mph (South)    
Max Wind Speed 8 mph    
Max Gust Speed -    
Visibility 10 miles    
Events      
T = Trace of Precipitation, MM = Missing Value Source: NWS Daily Summary

Daily Weather History Graph

Daily Weather History Graph

Search for Another Location

Airport:

Trip Planner

Search our weather history database for the weather conditions in past years. The results will help you decide how hot, cold, wet, or windy it might be!

Date:

Astronomy

Dec. 24, 2013 Rise Set
Actual Time 7:20 AM MST 4:56 PM MST
Civil Twilight 6:50 AM MST 5:25 PM MST
Nautical Twilight 6:18 AM MST 5:57 PM MST
Astronomical Twilight 5:46 AM MST 6:29 PM MST
Moon 11:58 PM MST (12/24) 11:23 AM MST (12/24)
Length of Visible Light 10h 34m
Length of Day
9h 35m
Waning Gibbous, 58% of the Moon is Illuminated
Dec 24
Waning Gibbous
Dec 25
Last Quarter
Jan 1
New
Jan 7
First Quarter
Jan 15
Full

Hourly Weather History & Observations

Time (MST) Temp. Windchill Dew Point Humidity Pressure Visibility Wind Dir Wind Speed Gust Speed Precip Events Conditions
12:15 AM 13.5 °F - 10.4 °F 88% 30.40 in 10.0 mi Calm Calm - N/A   Unknown
12:35 AM 14.0 °F - 8.1 °F 77% 30.39 in 10.0 mi Calm Calm - N/A   Unknown
12:55 AM 10.0 °F - 5.9 °F 83% 30.38 in 10.0 mi Calm Calm - N/A   Unknown
1:15 AM 13.5 °F - 9.1 °F 83% 30.38 in 10.0 mi Calm Calm - N/A   Unknown
1:35 AM 12.6 °F - 9.0 °F 85% 30.38 in 10.0 mi Calm Calm - N/A   Unknown
1:55 AM 11.1 °F - 9.3 °F 92% 30.38 in 10.0 mi Calm Calm - N/A   Unknown
2:15 AM 8.6 °F - 6.8 °F 92% 30.38 in 10.0 mi Calm Calm - N/A   Unknown
2:35 AM 12.4 °F - 9.3 °F 88% 30.37 in 10.0 mi Calm Calm - N/A   Unknown
2:55 AM 10.4 °F - 7.9 °F 90% 30.37 in 10.0 mi Calm Calm - N/A   Unknown
3:15 AM 11.7 °F - 9.7 °F 92% 30.37 in 10.0 mi Calm Calm - N/A   Unknown
3:35 AM 11.8 °F - 9.9 °F 92% 30.36 in 10.0 mi Calm Calm - N/A   Unknown
3:55 AM 11.1 °F - 10.0 °F 95% 30.36 in 10.0 mi Calm Calm - N/A   Unknown
4:15 AM 10.0 °F - 8.6 °F 94% 30.36 in 10.0 mi Calm Calm - N/A   Unknown
4:35 AM 8.6 °F - 7.0 °F 93% 30.34 in 10.0 mi Calm Calm - N/A   Unknown
4:55 AM 11.7 °F - 9.7 °F 92% 30.34 in 10.0 mi Calm Calm - N/A   Unknown
5:15 AM 10.4 °F - 7.3 °F 87% 30.33 in 10.0 mi Calm Calm - N/A   Unknown
5:35 AM 10.8 °F - 9.0 °F 92% 30.33 in 10.0 mi Calm Calm - N/A   Unknown
5:55 AM 11.1 °F - 8.4 °F 89% 30.33 in 10.0 mi Calm Calm - N/A   Unknown
6:15 AM 9.3 °F - 8.1 °F 95% 30.33 in 10.0 mi Calm Calm - N/A   Unknown
6:35 AM 9.3 °F - 7.5 °F 92% 30.32 in 10.0 mi Calm Calm - N/A   Unknown
6:55 AM 10.2 °F - 8.6 °F 93% 30.32 in 10.0 mi Calm Calm - N/A   Unknown
7:15 AM 10.6 °F - 8.6 °F 92% 30.31 in 10.0 mi Calm Calm - N/A   Unknown
7:35 AM 10.6 °F - 9.1 °F 94% 30.32 in 10.0 mi Calm Calm - N/A   Unknown
7:55 AM 10.9 °F - 9.3 °F 93% 30.32 in 10.0 mi Calm Calm - N/A   Unknown
8:15 AM 13.1 °F - 10.0 °F 88% 30.32 in 10.0 mi Calm Calm - N/A   Unknown
8:35 AM 13.6 °F - 11.5 °F 91% 30.32 in 10.0 mi Calm Calm - N/A   Unknown
8:55 AM 18.0 °F - 11.3 °F 75% 30.31 in 10.0 mi Calm Calm - N/A   Unknown
9:15 AM 19.0 °F - 10.9 °F 71% 30.31 in 10.0 mi Calm Calm - N/A   Unknown
9:35 AM 22.5 °F - 11.3 °F 62% 30.31 in 10.0 mi Calm Calm - N/A   Unknown
9:55 AM 23.7 °F - 11.8 °F 61% 30.31 in 10.0 mi Calm Calm - N/A   Unknown
10:15 AM 25.7 °F - 12.0 °F 56% 30.30 in 10.0 mi Calm Calm - N/A   Unknown
10:35 AM 26.6 °F 22.6 °F 12.2 °F 55% 30.30 in 10.0 mi WSW 3.5 mph - N/A   Unknown
10:55 AM 27.7 °F - 12.7 °F 54% 30.29 in 10.0 mi Calm Calm - N/A   Unknown
11:15 AM 30.2 °F 25.4 °F 12.2 °F 47% 30.27 in 10.0 mi SSW 4.6 mph - N/A   Unknown
11:35 AM 31.1 °F 24.5 °F 13.3 °F 48% 30.27 in 10.0 mi SSW 6.9 mph - N/A   Unknown
11:55 AM 32.0 °F 27.5 °F 13.6 °F 47% 30.25 in 10.0 mi SSW 4.6 mph - N/A   Unknown
12:15 PM 32.2 °F 27.7 °F 13.5 °F 46% 30.24 in 10.0 mi SSW 4.6 mph - N/A   Unknown
12:35 PM 33.1 °F 26.1 °F 15.4 °F 48% 30.23 in 10.0 mi South 8.1 mph - N/A   Unknown
12:55 PM 33.3 °F 30.2 °F 14.0 °F 45% 30.23 in 10.0 mi SSW 3.5 mph - N/A   Unknown
1:15 PM 34.5 °F 30.4 °F 15.4 °F 46% 30.22 in 10.0 mi SSE 4.6 mph - N/A   Unknown
1:35 PM 34.7 °F - 15.4 °F 45% 30.21 in 10.0 mi Calm Calm - N/A   Unknown
1:55 PM 35.1 °F 32.2 °F 16.0 °F 46% 30.20 in 10.0 mi South 3.5 mph - N/A   Unknown
2:15 PM 35.6 °F - 16.5 °F 46% 30.20 in 10.0 mi Calm Calm - N/A   Unknown
2:35 PM 36.5 °F 32.7 °F 17.1 °F 45% 30.20 in 10.0 mi South 4.6 mph - N/A   Unknown
2:55 PM 36.3 °F - 17.6 °F 47% 30.21 in 10.0 mi Calm Calm - N/A   Unknown
3:15 PM 36.5 °F 32.7 °F 18.1 °F 47% 30.21 in 10.0 mi SSW 4.6 mph - N/A   Unknown
3:35 PM 36.5 °F 33.9 °F 18.7 °F 49% 30.20 in 10.0 mi SSE 3.5 mph - N/A   Unknown
3:55 PM 35.8 °F 31.9 °F 18.5 °F 50% 30.20 in 10.0 mi South 4.6 mph - N/A   Unknown
4:15 PM 35.4 °F - 18.5 °F 50% 30.21 in 10.0 mi Calm Calm - N/A   Unknown
4:35 PM 35.1 °F 32.2 °F 18.5 °F 51% 30.21 in 10.0 mi SSE 3.5 mph - N/A   Unknown
4:55 PM 33.6 °F - 18.5 °F 54% 30.22 in 10.0 mi Calm Calm - N/A   Unknown
5:15 PM 25.7 °F - 16.7 °F 69% 30.22 in 10.0 mi Calm Calm - N/A   Unknown
5:35 PM 28.4 °F - 18.0 °F 65% 30.22 in 10.0 mi Calm Calm - N/A   Unknown
5:55 PM 25.9 °F - 17.8 °F 71% 30.23 in 10.0 mi Calm Calm - N/A   Unknown
6:15 PM 23.2 °F - 16.5 °F 76% 30.24 in 10.0 mi Calm Calm - N/A   Unknown
6:35 PM 25.9 °F - 17.8 °F 71% 30.24 in 10.0 mi Calm Calm - N/A   Unknown
6:55 PM 23.4 °F 16.2 °F 15.8 °F 73% 30.25 in 10.0 mi NE 5.8 mph - N/A   Unknown
7:15 PM 24.8 °F - 17.1 °F 72% 30.25 in 10.0 mi Calm Calm - N/A   Unknown
7:35 PM 23.9 °F - 17.8 °F 77% 30.25 in 10.0 mi Calm Calm - N/A   Unknown
7:55 PM 23.4 °F - 16.7 °F 76% 30.25 in 10.0 mi Calm Calm - N/A   Unknown
8:15 PM 23.4 °F - 17.6 °F 79% 30.26 in 10.0 mi Calm Calm - N/A   Unknown
8:35 PM 21.4 °F 16.6 °F 16.9 °F 83% 30.25 in 10.0 mi WNW 3.5 mph - N/A   Unknown
8:55 PM 23.2 °F 18.7 °F 18.3 °F 82% 30.27 in 10.0 mi North 3.5 mph - N/A   Unknown
9:15 PM 22.8 °F 18.2 °F 17.1 °F 79% 30.27 in 10.0 mi East 3.5 mph - N/A   Unknown
9:35 PM 20.7 °F - 15.1 °F 79% 30.27 in 10.0 mi Calm Calm - N/A   Unknown
9:55 PM 20.3 °F 15.4 °F 11.3 °F 68% 30.28 in 10.0 mi ENE 3.5 mph - N/A   Unknown
10:15 PM 20.1 °F - 11.8 °F 70% 30.28 in 10.0 mi Calm Calm - N/A   Unknown
10:35 PM 16.2 °F - 13.5 °F 89% 30.29 in 10.0 mi Calm Calm - N/A   Unknown
10:55 PM 16.3 °F 9.2 °F 8.8 °F 72% 30.29 in 10.0 mi SW 4.6 mph - N/A   Unknown
11:15 PM 17.1 °F - 10.2 °F 75% 30.30 in 10.0 mi Calm Calm - N/A   Unknown
11:35 PM 15.3 °F - 8.8 °F 76% 30.30 in 10.0 mi Calm Calm - N/A   Unknown
11:55 PM 16.0 °F - 8.4 °F 72% 30.30 in 10.0 mi Calm Calm - N/A   Unknown